Powrót do katalogu

STARLINK-38090

AktywnyŁącznośćSSO
NORAD 69994·PAYLOAD·🇺🇸 United States

Wystrzelony Jul 11, 2026 z Vandenberg Space Force Base

Loading…

Następne Przeloty (najbliższe 24 godziny)

TLE

ŚwieżeSource: CelesTrak SupGP

Epoka: Sep 14, 2026, 21:18 UTC

1 69994C 26159V   26257.88798611 -.02393900  00000+0 -42510-1 0  2577
2 69994  97.2848  99.6605 0001931  90.5013  94.0542 15.51460308    12

Śledź STARLINK-38090 w czasie rzeczywistym z AllMySat

Download on the App Store